Starlink 34174

operational
NORAD ID: 64097 Int'l Des: 2025-110 Owner: SPXS Country: US Constellation: starlink
LEOCIRCULAR

About Starlink 34174

Description loading...

Live Position

Loading 3D Globe...

Upcoming Passes

Altitude History

Altitude vs Time

uPlot chart will show altitude changes over time

Two-Line Element Set

1 64097U 25110B 25306.19776311 .00038942 00000-0 97802-3 0 9991
2 64097 53.1606 259.6112 0000818 83.6259 276.4839 15.39636853 26359
Epoch: Nov 2, 2025 • Age: 29 hours

Current Status

Altitude 451.6 km
Velocity 7.64 km/s
Sub-Earth Point -16.38°S, 101.14°W
Launch Date May 23, 2025
Age 0.4 years
Type internet

Technical Details

Classification Payload
Mass 575.00 kg
Dry Mass 530.00 kg
Total Mass 575.00 kg
Length 0.30 m
Diameter 4.10 m
Span 29.00 m
Shape Box + pan
Manufacturer SPXS
Bus Type Starlink V2MO
Phase Status In Orbit
Owner/State SPXS/US

Large Constellations

Loading constellations...